Overview Statistics Trail Chart Weather Telemetry Raw packets
 

This is the latest recevied weather packets stored in our database for station/object Waldburg. If no packets are shown the sender has not sent any weather packets the latest 10 day(s).

<< 16 17 18 19 20 >>
Time Temp. Humidity Pressure Rain* Wind** Luminosity Snow
1787905930 25° C 71% 1004.9 hPa 0 mm - - -
1787904130 23.33° C 73% 1006.1 hPa 0 mm - - -
1787902333 22.22° C 77% 1006.8 hPa 0 mm - - -
1787900530 21.67° C 78% 1007.5 hPa 0 mm - - -
1787898730 21.67° C 74% 1006.9 hPa 0 mm - - -
1787896930 23.33° C 67% 1007.1 hPa 0 mm - - -
1787895130 23.33° C 62% 1007.2 hPa 0 mm - - -
1787893329 23.89° C 59% 1006.9 hPa 0 mm - - -
1787891530 24.44° C 57% 1006.8 hPa 0 mm - - -
1787889733 24.44° C 55% 1006.8 hPa 0 mm - - -
1787887929 24.44° C 55% 1006.9 hPa 0 mm - - -
1787886129 24.44° C 56% 1007.2 hPa 0 mm - - -
1787884330 25° C 55% 1007.6 hPa 0 mm - - -
1787882530 24.44° C 56% 1007.7 hPa 0 mm - - -
1787880729 24.44° C 56% 1007.7 hPa 0 mm - - -
1787878929 24.44° C 57% 1007.8 hPa 0 mm - - -
1787877131 24.44° C 58% 1007.8 hPa 0 mm - - -
1787875331 24.44° C 58% 1007.9 hPa 0 mm - - -
1787873530 24.44° C 59% 1007.9 hPa 0 mm - - -
1787871732 25° C 58% 1008.5 hPa 0 mm - - -
1787869931 23.89° C 61% 1008.6 hPa 0 mm - - -
1787868132 22.78° C 76% 1008.5 hPa 0 mm - - -
1787866332 23.33° C 69% 1008.9 hPa 0 mm - - -
1787864531 23.89° C 73% 1008.8 hPa 0 mm - - -
1787862731 24.44° C 71% 1008.8 hPa 0 mm - - -

* Rain since midnight (hover to see other rain measurements)
** Current wind speed in m/s (hover to see current wind gust speed)